Simultaneous Nadir Overpasses (SNOs) Predictions

Prediction of SNOs between NOAA-19 and TERRA Satellite Orbit:

Table of predicted SNOs for the next 14.0 days since TLE Epoch: 12/23/2013
Index Date (NOAA-19) Time (NOAA-19) Lat,Lon (NOAA-19) SZA (NOAA-19 ) Date (TERRA) Time (TERRA) Lat,Lon (TERRA) SZA (TERRA ) Distance(km) Time Diff (sec)
1 12/24/2013 16:01:07 -70.01, 120.36 86.70 12/24/2013 16:01:24 -70.01, 120.36 86.70 0.39 17
2 12/24/2013 16:52:06 69.78, -72.05 93.08 12/24/2013 16:50:53 69.80, -72.29 93.09 9.60 73
3 12/26/2013 20:45:13 -70.01, 49.35 86.77 12/26/2013 20:45:42 -70.02, 49.30 86.76 2.52 29
4 12/26/2013 21:36:15 69.91,-143.26 93.14 12/26/2013 21:35:09 69.92,-143.20 93.14 2.20 66
5 12/29/2013 01:29:20 -70.07, -21.74 86.82 12/29/2013 01:29:59 -70.07, -21.71 86.82 1.29 39
6 12/29/2013 02:20:21 69.89, 145.77 93.01 12/29/2013 02:19:27 69.91, 145.71 93.02 2.96 54
7 12/31/2013 06:13:26 -70.08, -92.77 86.95 12/31/2013 06:14:16 -70.10, -92.74 86.94 1.84 50
8 12/31/2013 07:04:28 69.93, 74.70 92.90 12/31/2013 07:03:44 69.93, 74.67 92.90 1.34 44
9 01/02/2014 10:57:32 -70.10,-163.80 87.11 01/02/2014 10:58:33 -70.11,-163.80 87.11 0.66 61
10 01/02/2014 11:48:35 69.97, 3.63 92.76 01/02/2014 11:48:00 70.00, 3.68 92.78 3.35 35
11 01/04/2014 15:41:38 -70.13, 125.16 87.31 01/04/2014 15:42:50 -70.10, 125.12 87.33 3.24 72
12 01/04/2014 16:32:41 69.97, -67.37 92.54 01/04/2014 16:32:17 69.98, -67.40 92.55 1.83 24
